Temp
23 22 22 22 21 23 23 22 23 21 19 21 20 19 18 17 18 18 18 18 18 17 17 17 17 17 18 18 18 19 18 18 18 17 16 15 15 13 15 12 14 12 15
23 22 22 22 21 21 24 23 23 22 21 21 20 20 19 19 18 17 17 17 17 18 17 17 17 17 17 18 18 18 18 18 19 17 16 16 15 14 15 15 12 13 12
23 22 23 22 21 21 21 22 22 20 21 20 19 19 18 18 18 19 18 17 17 17 17 17 17 17 17 18 17 18 18 18 18 17 16 15 15 14 14 14 14 13 13
24 23 22 22 21 21 21 20 19 19 19 18 18 17 18 16 17 18 18 18 17 17 17 18 17 17 17 17 17 18 18 18 17 17 17 16 15 14 13 13 14 13 13
23 22 22 21 21 21 21 20 20 19 19 21 20 21 18 16 20 18 19 18 17 17 17 18 18 17 18 17 18 17 17 18 18 17 18 16 16 15 15 14 14 14 13
21 21 21 22 23 23 21 21 19 19 21 22 22 23 23 25 22 20 20 19 17 17 18 17 17 17 18 19 19 19 18 19 18 18 18 17 17 16 15 15 15 15 15
22 22 23 23 24 24 22 21 20 21 22 23 23 22 22 22 21 21 22 20 19 18 18 18 17 17 18 19 19 18 19 19 18 17 18 17 17 18 17 17 15 15 16
20 21 22 23 24 24 23 22 20 23 23 21 21 21 22 21 18 20 22 21 20 19 18 18 18 18 18 17 18 18 18 19 18 17 16 17 17 17 18 18 17 15 15
22 22 22 22 22 23 23 21 21 23 23 22 22 21 23 20 20 20 20 20 19 19 18 17 17 18 18 18 17 17 17 17 18 18 18 16 16 17 17 15 15 15 15
22 21 21 22 21 20 22 22 20 22 22 22 21 21 20 21 20 20 19 19 18 17 18 18 18 18 18 18 18 17 16 18 18 19 18 17 17 17 17 17 15 15 17
21 21 21 21 22 19 20 20 20 20 21 21 19 20 20 20 20 20 20 19 19 17 17 18 18 18 18 18 18 17 17 17 17 16 18 17 17 17 17 17 17 16 17
19 18 18 19 20 20 21 19 19 19 19 19 19 19 18 20 20 20 20 19 18 18 18 17 18 17 17 18 17 17 17 17 16 16 17 17 17 16 17 17 17 17 17
17 17 17 17 15 18 19 20 18 18 18 18 19 18 18 18 19 20 19 19 18 17 18 17 17 17 18 17 17 17 17 17 16 16 16 17 17 16 16 16 17 17 16
15 15 13 14 15 15 16 17 17 18 18 17 17 18 18 17 17 18 18 19 18 18 17 17 16 17 17 17 17 16 16 16 15 16 15 16 17 16 15 15 15 16 15
11 12 13 14 14 14 15 16 16 15 16 16 16 16 16 16 17 17 17 17 17 16 16 17 16 17 16 16 16 17 16 16 15 16 16 16 17 16 16 16 16 16 15
10 12 12 12 13 14 14 15 15 15 15 16 16 16 16 16 17 17 17 18 17 17 16 16 16 16 16 16 16 17 17 16 15 16 16 16 17 16 16 16 15 16 16
8 10 11 12 13 13 13 14 14 15 15 15 15 16 17 17 17 16 16 18 18 17 17 16 16 16 16 16 16 16 16 17 16 15 16 16 16 17 16 16 16 15 16
9 10 9 10 11 12 13 13 14 15 15 15 15 15 15 15 16 16 16 17 17 17 17 17 16 17 17 17 16 17 16 15 16 15 16 16 16 16 16 16 16 16 16
8 9 8 8 9 10 11 12 13 14 15 16 15 15 16 15 15 16 16 16 16 16 16 16 16 17 17 17 17 17 17 16 16 16 16 16 16 16 16 17 17 17 17
6 7 7 8 8 9 10 11 12 12 13 14 15 15 16 15 15 15 15 15 15 16 17 17 16 16 16 17 17 17 17 18 18 17 16 16 16 15 15 16 16 17 16
6 7 7 8 8 9 9 10 11 13 13 13 14 14 14 14 15 16 16 15 15 16 16 16 16 18 18 18 17 17 16 17 18 18 17 17 17 16 15 16 17 17 17
6 6 7 8 9 9 8 9 10 11 12 12 13 13 13 14 15 16 16 16 16 15 15 15 16 16 16 15 16 16 16 17 18 18 18 17 17 17 16 15 15 15 17
6 7 7 7 7 8 9 9 9 10 10 11 11 12 13 13 13 15 16 15 15 15 15 15 16 17 17 17 17 16 16 16 16 16 17 17 17 16 16 16 16 16 15
4 5 6 6 6 7 7 8 8 9 9 10 10 11 11 12 13 14 14 15 15 15 15 14 15 16 17 16 16 16 15 15 15 15 14 15 15 15 15 16 16 16 16
4 3 3 4 5 5 6 7 7 8 8 8 9 10 10 11 11 12 13 14 14 15 15 15 14 15 15 15 15 15 14 15 14 14 14 14 14 14 14 14 14 15 16
4 3 3 3 3 4 4 5 5 6 7 8 8 8 9 9 10 10 10 11 12 13 13 15 15 15 15 15 14 14 14 14 14 14 14 13 14 15 14 14 14 14 15
Height
1547 1550 1550 1552 1553 1555 1556 1557 1558 1560 1561 1562 1564 1565 1566 1567 1566 1564 1564 1565 1565 1566 1568 1570 1573 1575 1577 1577 1581 1582 1583 1585 1587 1589 1590 1589 1591 1593 1593 1594 1594 1596 1595
1546 1545 1546 1548 1551 1553 1552 1553 1555 1556 1558 1561 1562 1562 1564 1563 1563 1562 1561 1563 1561 1561 1563 1566 1569 1571 1571 1573 1575 1578 1580 1581 1585 1585 1587 1587 1589 1591 1592 1594 1597 1599 1597
1542 1542 1543 1545 1547 1549 1550 1550 1552 1554 1555 1557 1560 1563 1566 1562 1559 1558 1558 1558 1558 1559 1560 1562 1564 1566 1568 1570 1571 1575 1577 1578 1579 1582 1584 1586 1587 1589 1590 1592 1594 1598 1598
1540 1540 1540 1542 1544 1546 1546 1547 1549 1550 1552 1553 1550 1552 1553 1547 1550 1549 1551 1552 1553 1554 1554 1554 1557 1560 1562 1565 1567 1569 1573 1575 1576 1579 1581 1584 1585 1586 1589 1590 1591 1594 1596
1536 1538 1539 1540 1541 1540 1540 1542 1542 1544 1540 1540 1536 1536 1534 1530 1536 1538 1542 1543 1545 1548 1549 1549 1551 1553 1555 1558 1562 1564 1566 1569 1572 1574 1578 1580 1582 1582 1583 1587 1590 1591 1592
1534 1535 1536 1536 1536 1535 1537 1536 1536 1536 1534 1531 1529 1525 1517 1516 1521 1526 1531 1536 1538 1540 1542 1544 1546 1548 1550 1552 1554 1558 1560 1564 1567 1569 1573 1573 1576 1578 1580 1584 1586 1589 1590
1531 1532 1533 1533 1533 1533 1533 1532 1531 1529 1527 1525 1524 1523 1520 1523 1521 1521 1522 1527 1528 1532 1533 1536 1539 1541 1543 1545 1548 1552 1555 1558 1562 1564 1567 1568 1571 1572 1575 1578 1581 1583 1585
1533 1532 1532 1533 1532 1532 1531 1529 1528 1524 1522 1520 1521 1520 1519 1519 1514 1518 1521 1520 1519 1523 1526 1528 1531 1534 1537 1540 1541 1545 1548 1551 1555 1558 1560 1564 1566 1567 1570 1573 1576 1579 1582
1533 1533 1531 1531 1531 1530 1529 1526 1525 1522 1520 1518 1516 1517 1515 1515 1517 1517 1516 1516 1515 1517 1519 1522 1526 1527 1530 1535 1537 1539 1542 1544 1547 1552 1555 1557 1560 1561 1565 1568 1570 1575 1577
1531 1532 1531 1528 1527 1527 1526 1523 1522 1519 1516 1513 1513 1514 1513 1513 1513 1514 1516 1515 1513 1514 1513 1516 1520 1521 1523 1528 1531 1534 1536 1538 1541 1545 1548 1551 1554 1556 1559 1561 1564 1567 1571
1529 1529 1529 1527 1524 1524 1522 1520 1518 1516 1514 1512 1510 1510 1509 1509 1510 1512 1512 1511 1510 1511 1509 1509 1513 1516 1518 1522 1525 1528 1533 1538 1538 1539 1541 1545 1548 1550 1552 1554 1557 1561 1565
1525 1525 1525 1524 1521 1519 1518 1517 1515 1513 1511 1509 1506 1506 1506 1506 1505 1507 1507 1506 1506 1507 1507 1506 1508 1510 1513 1518 1521 1523 1527 1532 1535 1535 1538 1541 1544 1545 1544 1548 1552 1555 1560
1519 1519 1520 1520 1518 1514 1512 1510 1511 1510 1507 1506 1505 1503 1503 1502 1501 1502 1502 1502 1503 1502 1505 1504 1505 1506 1508 1512 1516 1520 1523 1525 1528 1531 1533 1534 1538 1540 1542 1542 1547 1550 1553
1513 1514 1516 1516 1514 1512 1510 1508 1507 1508 1506 1503 1500 1499 1498 1498 1498 1500 1499 1497 1497 1497 1499 1500 1501 1502 1503 1507 1510 1512 1516 1518 1522 1526 1526 1530 1534 1534 1535 1537 1540 1542 1546
1512 1513 1514 1514 1512 1508 1507 1506 1504 1502 1499 1497 1496 1494 1494 1495 1494 1494 1494 1494 1494 1494 1495 1496 1496 1496 1498 1501 1503 1505 1509 1511 1515 1517 1520 1523 1527 1528 1529 1532 1535 1538 1539
1513 1514 1512 1509 1507 1505 1502 1501 1500 1497 1494 1492 1491 1490 1488 1487 1486 1487 1489 1489 1489 1489 1489 1490 1490 1491 1493 1495 1495 1497 1500 1505 1508 1513 1515 1517 1519 1521 1523 1526 1529 1531 1532
1513 1512 1508 1507 1504 1501 1498 1497 1494 1493 1491 1488 1486 1485 1485 1483 1480 1479 1479 1479 1481 1482 1481 1482 1483 1485 1486 1488 1490 1491 1491 1495 1499 1505 1508 1509 1512 1514 1516 1518 1521 1523 1525
1511 1509 1506 1504 1500 1497 1494 1492 1491 1489 1486 1485 1483 1481 1479 1477 1475 1472 1471 1469 1468 1470 1471 1473 1474 1477 1479 1481 1483 1485 1486 1487 1491 1495 1498 1501 1504 1506 1508 1509 1511 1513 1517
1508 1507 1503 1499 1495 1492 1490 1488 1486 1484 1482 1480 1478 1477 1473 1471 1471 1467 1465 1463 1462 1462 1463 1465 1467 1469 1472 1475 1476 1478 1481 1482 1482 1484 1487 1491 1492 1495 1497 1501 1503 1505 1507
1503 1501 1498 1495 1491 1488 1486 1484 1482 1481 1478 1477 1475 1473 1472 1468 1467 1465 1462 1460 1458 1457 1456 1457 1460 1461 1464 1466 1469 1471 1474 1476 1478 1479 1480 1482 1483 1485 1487 1489 1492 1496 1497
1500 1498 1495 1492 1488 1484 1483 1480 1479 1477 1474 1473 1471 1469 1466 1465 1463 1461 1460 1457 1455 1454 1453 1451 1452 1453 1455 1457 1459 1461 1464 1467 1469 1471 1472 1474 1475 1476 1477 1478 1479 1483 1488
1499 1495 1491 1488 1485 1481 1479 1477 1475 1472 1470 1468 1466 1464 1462 1461 1458 1456 1455 1453 1451 1448 1448 1448 1448 1449 1450 1449 1450 1453 1455 1456 1458 1461 1463 1465 1466 1466 1468 1468 1469 1471 1472
1497 1493 1489 1486 1483 1479 1476 1473 1471 1468 1466 1464 1461 1458 1456 1456 1453 1450 1449 1448 1446 1444 1443 1442 1442 1443 1444 1444 1445 1445 1445 1447 1447 1449 1452 1453 1454 1455 1457 1458 1459 1462 1463
1498 1494 1489 1485 1481 1477 1473 1469 1466 1464 1461 1458 1456 1455 1452 1450 1448 1447 1444 1443 1442 1440 1438 1436 1435 1436 1436 1436 1436 1435 1434 1436 1439 1439 1440 1441 1442 1446 1447 1449 1450 1451 1453
1501 1497 1492 1487 1481 1476 1472 1467 1463 1460 1457 1454 1451 1449 1446 1444 1441 1440 1437 1437 1436 1433 1434 1432 1430 1429 1430 1429 1428 1427 1426 1427 1428 1429 1430 1431 1432 1433 1434 1437 1437 1439 1441
1502 1498 1493 1488 1484 1478 1473 1468 1462 1458 1454 1450 1447 1445 1443 1440 1437 1436 1433 1430 1427 1427 1425 1427 1426 1425 1423 1423 1419 1418 1419 1419 1419 1420 1422 1422 1422 1423 1425 1425 1426 1428 1432
Wind_Speed
20 18 19 18 19 19 20 20 20 19 18 19 19 18 16 16 17 17 18 18 17 16 15 14 14 14 12 13 13 12 12 12 8 9 11 13 12 13 10 10 10 7 7
19 20 20 20 19 17 18 20 20 20 19 20 19 20 20 19 17 17 18 17 18 18 15 15 16 14 15 17 16 15 13 14 12 14 14 13 13 14 12 10 9 7 6
14 16 18 19 19 18 18 20 20 18 19 17 16 15 20 24 22 20 19 18 18 18 18 18 18 17 17 16 17 17 17 15 16 14 13 13 15 15 14 14 12 11 9
11 12 13 13 14 16 17 18 15 16 13 12 8 6 55 29 20 21 22 22 19 20 21 22 21 21 20 19 19 20 18 18 17 16 15 16 16 17 15 15 16 14 12
9 9 9 9 10 11 12 13 16 16 22 25 17 21 37 22 29 29 21 24 23 21 22 23 23 21 22 21 19 21 23 22 20 19 18 17 18 20 21 18 15 15 17
7 5 6 6 5 6 7 8 11 15 18 24 30 20 10 23 19 20 29 28 24 25 25 23 22 24 24 25 26 24 24 25 24 21 21 23 22 22 19 19 18 17 17
3 1 0 1 2 3 3 6 9 12 16 19 23 23 19 19 17 20 22 23 20 21 26 27 25 22 24 25 28 27 27 28 25 24 24 24 22 24 20 22 21 21 17
9 7 5 3 2 3 4 7 10 15 18 20 21 16 17 14 27 15 14 19 25 27 24 27 27 25 25 24 26 28 28 30 30 27 23 22 22 23 19 16 21 20 16
11 9 6 5 4 3 5 8 12 16 19 20 14 15 15 17 16 15 19 15 25 26 23 27 26 27 28 25 25 24 24 27 27 25 25 23 26 25 20 18 19 20 20
11 13 12 9 8 8 8 11 12 16 19 17 13 16 18 15 13 15 24 27 24 22 22 27 30 30 27 26 29 26 26 28 24 24 26 27 25 26 24 24 21 23 22
14 15 16 14 12 10 9 11 12 15 17 18 18 22 20 21 18 19 23 27 27 21 21 22 24 26 28 28 29 29 25 21 22 20 22 25 27 29 30 28 27 23 23
13 15 16 16 14 13 10 7 14 13 14 19 21 23 22 22 21 18 19 19 18 18 19 21 22 24 26 27 28 30 28 26 18 20 20 20 22 24 30 31 30 29 23
17 17 17 18 14 13 13 11 8 11 14 14 17 15 14 13 16 18 18 18 20 23 16 19 22 22 21 25 29 29 29 28 23 23 21 21 23 22 21 27 30 30 29
20 19 17 16 18 12 12 12 12 11 13 12 13 13 9 8 9 11 15 17 20 21 21 22 20 22 22 25 28 31 31 30 26 22 22 20 20 22 24 25 25 30 26
20 19 17 16 16 15 12 11 13 13 13 15 14 13 10 11 10 10 13 15 13 16 18 21 20 25 25 27 31 32 33 31 27 27 27 22 21 21 22 25 25 26 27
19 18 19 18 17 15 14 15 15 20 20 15 16 19 22 24 29 27 22 19 18 20 21 25 26 26 25 25 28 32 34 33 30 23 22 21 22 22 23 24 24 27 27
19 19 19 18 17 17 16 16 18 16 19 21 19 19 16 17 19 16 14 20 28 23 25 26 31 26 28 26 26 24 30 36 35 28 23 22 22 23 25 26 26 27 30
18 19 17 17 17 17 18 17 17 19 19 19 17 17 21 17 15 16 18 21 30 37 33 28 28 27 28 29 26 25 22 26 31 30 33 26 24 24 24 26 29 28 29
16 15 19 19 18 17 17 17 17 17 18 19 19 16 19 18 20 15 13 14 16 21 29 31 27 28 26 26 25 23 24 26 24 28 35 37 32 32 32 27 27 30 28
16 19 21 19 20 17 17 18 18 17 19 17 18 18 16 17 17 15 16 14 14 13 15 21 28 26 25 27 25 23 24 24 26 28 26 25 26 29 30 30 34 29 26
19 18 19 20 23 22 17 18 17 18 19 19 20 19 18 17 17 16 14 16 18 19 20 19 21 25 29 31 32 31 25 25 26 28 29 29 28 30 30 31 34 35 30
17 19 20 20 21 21 19 19 19 18 18 18 18 20 19 20 17 16 16 16 16 18 16 19 19 19 20 21 23 25 28 31 31 31 31 31 30 30 31 29 31 33 39
22 22 21 19 19 20 19 17 18 19 19 21 20 18 20 21 21 17 17 16 16 16 15 18 19 21 22 22 21 20 22 24 26 26 29 31 32 31 31 30 30 29 30
22 26 26 24 22 20 20 19 19 19 19 19 17 18 20 19 20 23 21 16 16 14 15 17 20 20 22 25 24 26 30 26 24 25 28 33 34 28 28 27 28 28 28
18 19 21 26 29 29 26 21 19 17 18 18 16 17 20 19 19 19 20 17 19 14 15 14 15 17 18 21 24 26 24 25 29 26 23 23 29 33 32 37 36 39 38
19 19 19 21 23 27 30 29 26 21 19 17 18 19 15 14 13 14 16 19 18 16 15 15 15 15 15 15 17 18 21 24 30 27 23 24 24 28 27 26 26 25 29
Wind_Direction
233 227 230 230 231 241 244 249 252 251 246 255 256 260 258 258 260 261 259 242 244 239 232 224 231 220 221 238 208 208 208 201 184 164 174 184 183 166 179 167 152 151 145
226 232 231 234 229 232 247 250 254 255 257 260 264 262 264 266 265 259 256 252 248 246 239 227 228 233 226 221 215 209 211 206 200 177 182 192 190 183 190 185 171 178 178
224 233 238 239 240 239 240 251 250 253 256 258 265 275 291 277 268 266 261 256 250 242 234 229 226 225 227 224 222 215 212 205 199 190 190 192 191 191 195 194 190 192 188
220 230 235 243 242 245 246 251 245 248 251 249 219 22 341 307 262 267 265 260 250 245 242 240 227 223 226 222 223 216 209 205 200 195 194 193 193 201 200 198 206 202 199
227 230 245 243 241 248 250 251 251 240 239 245 250 322 356 287 256 266 270 258 252 246 245 246 239 228 230 222 220 221 213 211 208 199 202 197 198 201 210 205 210 211 214
222 228 240 258 258 265 266 252 246 240 252 263 279 281 295 296 262 261 264 262 250 252 248 243 240 238 236 235 225 226 225 221 205 206 209 206 209 215 210 209 206 208 213
138 155 207 314 309 300 282 256 243 263 270 262 274 246 267 286 282 282 262 244 245 254 251 248 238 233 238 235 223 226 231 224 220 221 215 216 214 223 220 216 213 214 215
65 60 52 51 15 315 292 265 259 289 287 271 265 260 274 286 279 270 244 252 249 246 260 243 240 234 230 225 222 223 222 223 225 225 225 220 216 230 228 239 236 223 219
35 23 12 357 338 313 300 280 273 284 285 291 286 251 275 273 269 259 228 259 252 239 249 241 238 238 233 230 219 215 216 218 226 226 222 215 221 223 225 212 212 212 215
4 1 357 347 325 309 292 292 269 290 291 295 271 245 257 256 274 255 247 249 255 239 251 241 239 239 237 232 225 218 215 217 220 221 220 225 226 225 222 224 214 211 217
331 332 331 331 335 327 306 295 286 295 296 296 279 250 252 255 267 266 258 254 250 249 247 236 235 239 238 231 224 221 219 214 218 219 221 226 229 229 226 223 218 214 217
323 325 324 323 323 319 317 293 290 290 285 290 288 284 262 256 261 261 258 258 254 241 247 241 239 237 235 229 223 219 218 215 214 218 212 216 221 219 226 226 226 219 216
324 321 319 317 324 321 318 305 302 301 307 287 284 277 265 261 259 260 265 260 248 246 245 254 236 238 227 226 224 225 223 223 220 215 219 218 223 224 218 225 224 228 223
330 324 321 320 311 323 320 315 314 307 287 294 289 270 257 271 279 270 282 271 257 249 238 239 240 231 226 224 225 222 223 226 218 227 222 224 224 217 217 217 215 224 220
341 333 325 314 315 317 315 302 298 300 298 299 295 292 290 273 277 251 268 262 253 258 243 236 235 226 225 224 226 228 228 227 225 231 233 221 225 224 220 218 222 219 224
339 330 324 322 317 314 310 307 299 304 307 302 289 289 296 297 293 287 277 269 267 250 246 239 234 230 222 220 225 230 229 227 225 224 228 224 224 223 223 221 221 222 227
332 328 328 330 322 318 313 309 308 304 306 308 305 302 293 306 296 286 272 258 246 245 243 244 241 232 227 226 225 227 235 231 230 224 230 226 226 226 224 222 225 229 232
328 331 328 322 322 319 314 306 307 305 305 303 305 305 310 319 317 289 273 263 243 237 242 241 238 236 235 233 229 227 230 229 229 230 229 225 230 229 227 229 226 230 234
327 323 327 327 328 323 323 311 305 304 304 304 303 299 301 303 311 301 279 270 251 255 246 240 237 233 232 231 231 233 231 236 242 239 238 237 230 233 233 230 236 232 233
329 332 336 333 335 328 324 321 312 308 306 305 305 304 296 301 308 303 294 271 256 261 259 247 241 238 235 229 229 232 234 235 231 233 233 232 233 231 233 234 233 234 238
343 336 335 335 338 338 325 316 314 313 306 295 301 306 311 301 296 291 285 281 261 252 251 250 244 244 245 244 237 229 230 235 237 236 237 237 233 235 233 233 237 237 232
347 339 339 342 344 342 329 319 309 309 306 310 303 297 302 305 291 285 283 282 276 275 259 249 244 244 245 239 233 235 237 237 237 239 240 241 238 234 234 236 236 234 241
5 358 353 347 344 342 337 322 326 324 318 314 306 303 298 293 296 290 290 287 281 270 257 253 247 240 240 241 242 242 239 242 243 237 240 239 237 232 234 233 234 235 236
13 14 12 7 1 351 343 342 325 311 310 314 315 312 306 294 289 281 295 291 283 281 270 261 240 250 253 249 249 248 253 249 243 244 239 235 230 232 228 229 231 232 235
8 9 9 13 12 9 3 352 342 326 319 323 310 310 316 308 298 287 289 290 291 275 276 276 265 257 261 262 258 253 252 249 251 255 246 239 248 247 250 242 241 244 244
3 5 2 8 9 13 12 9 3 352 336 323 314 307 307 325 327 318 321 296 290 278 288 274 270 268 264 264 260 256 252 251 257 253 255 243 243 253 252 253 251 249 238